Weather in Blagoveshchenskoye

Russia / Vladimir Oblast     55°43′29″N   42°12′08″E
temp.,
°C
wind,
m/s
gust,
m/s
humid.,
%
clouds,
%
prec.,
mm/h
press.,
hPa
HPBL,
m
2 march, tue
tue200:00+1wsw61393100 0.1 1011635
03:00+1wsw61394100 0.1 1008693
06:00+1w61394100 0.0 1005763
09:00+1wnw51298100 0.2 1004712
12:00+1wnw5109371 0.4 1004985
15:00+1wnw5109081 0.8 1004864
18:00−1wnw41190100 0.1 1004596
21:00−2nw51193100 0.3 1006727
3 march, wed
wed300:00−4nw4129196 0.1 1006619
03:00−7nw4128974 0.1 1008468
06:00−8nw4119296 0.1 1009571
09:00−7nw6118898 0.1 1011713
12:00−4nw6108098 0.0 1011865
15:00−3wnw588366 0.1 1011941
18:00−3wnw41092100 0.1 1010659
21:00−4w4109499 0.1 1011375
4 march, thu
thu400:00−5w4119476 0.0 1009324
03:00−5wsw5119380 0.0 1008348
06:00−3sw51291100 0.0 1004623
09:00−1wsw81495100 0.9 1001945
12:000wsw71394100 0.9 9981004
15:000wsw71396100 0.9 9971156
18:000wsw71490100 0.1 995926
21:00−1wnw61294100 0.4 997779
5 march, fri
fri500:00−5wnw41087100 0.1 998386
03:00−8wnw389371 0.1 1001194
06:00−10wnw24950 0.0 100472
09:00−9nw24920 0.0 1006231
12:00−5nw237946 0.0 1007563
15:00−4wnw127136 0.0 1008699
18:00−8sse118492 0.0 100821
21:00−9e118796 0.0 100921
6 march, sat
sat600:00−10ene1291100 0.0 100821
03:00−11nne229297 0.0 100821
06:00−12nne229462 0.0 100827
09:00−10nnw249269 0.0 1008246
12:00−7nw248489 0.0 1008594
15:00−5wnw358395 0.1 1008704
18:00−9wnw379098 0.3 1009170
21:00−10nw249294 0.4 1010117